Preview of NWS' New Version of Forecast
This preview is not operational and should not be used for support decisions.

Regional Weather Roundup (RWR)

Issued by National Weather Service (NWS)

                            
000
ASUS45 KBOI 231010
RWRID 

IDAHO REGIONAL WEATHER ROUNDUP
NATIONAL WEATHER SERVICE BOISE ID
400 AM MDT TUE APR 23 2019

NOTE: "FAIR" INDICATES FEW OR NO CLOUDS BELOW 12000 FEET
WITH NO SIGNIFICANT WEATHER AND/OR OBSTRUCTIONS TO VISIBILITY

IDZ012-014-231100-
SOUTHWEST IDAHO

  
CITY           SKY/WX    TMP DP  RH WIND       PRES   REMARKS
BOISE          MOCLDY    49  38  65 S5        30.14F                  
CALDWELL       MOCLDY    50  38  63 CALM      30.15F                  
MOUNTAIN HOME  PTCLDY    45  37  72 W8        30.14F                  
$$

IDZ016-017-231100-
SOUTHCENTRAL IDAHO

  
CITY           SKY/WX    TMP DP  RH WIND       PRES   REMARKS
BURLEY         PTCLDY    42  36  79 SW8       30.16F                  
JEROME         PTCLDY    47  31  53 S7        30.17S                  
TWIN FALLS     PTCLDY    46  30  53 S14       30.16F                  
$$

IDZ019>023-231100-
SOUTHEAST IDAHO

  
CITY           SKY/WX    TMP DP  RH WIND       PRES   REMARKS
IDAHO FALLS    MOCLDY    48  36  63 S9        30.18F                  
POCATELLO      PTCLDY    41  35  79 S6        30.19F                  
REXBURG        MOCLDY    47  36  65 S7        30.17F                  
$$

IDZ006-010-011-018-031-032-231100-
CENTRAL IDAHO MOUNTAINS

  
CITY           SKY/WX    TMP DP  RH WIND       PRES   REMARKS
MCCALL         MOCLDY    36  30  79 CALM      30.19F                  
HAILEY         PTCLDY    43  34  70 NW8       30.20F                  
STANLEY          N/A     30  23  75 S3        30.26S                  
SALMON         MOCLDY    44  38  79 CALM      30.17S                  
CHALLIS        PTCLDY    41  29  62 NW3       30.18S                  
$$

IDZ002-004-006-007-026-231100-
NORTHERN IDAHO

  
CITY           SKY/WX    TMP DP  RH WIND       PRES   REMARKS
LEWISTON       CLOUDY    59  45  59 CALM      30.09F                  
LOWELL           N/A     48  45  89 N3        30.16S                  
COEUR D'ALENE  CLOUDY    50  44  80 SW9       30.08R                  
MULLAN PASS    CLOUDY    40  36  86 W9G18     30.10S WCI  34          
$$